Hourly Weather Abaytikau

Today, 29 October, Thursday

Time Temperature Precipitation Wind Pressure Humidity
00:00 +5°C° 0 mm 2 mps 579 mmHg 55%
01:00 +5°C° 0 mm 2 mps 579 mmHg 55%
02:00 +5°C° 0 mm 2 mps 578 mmHg 55%
03:00 +5°C° 0 mm 2 mps 578 mmHg 54%
04:00 +5°C° 0 mm 2 mps 578 mmHg 54%
05:00 +5°C° 0 mm 2 mps 578 mmHg 54%
06:00 +5°C° 0 mm 2 mps 578 mmHg 53%
07:00 +7°C° 0 mm 2 mps 579 mmHg 50%
08:00 +8°C° 0 mm 2 mps 580 mmHg 46%
09:00 +10°C° 0 mm 2 mps 581 mmHg 42%
10:00 +12°C° 0 mm 2 mps 581 mmHg 41%
11:00 +12°C° 0 mm 3 mps 581 mmHg 40%
12:00 +13°C° 0 mm 3 mps 582 mmHg 39%
13:00 +12°C° 0 mm 3 mps 581 mmHg 40%
14:00 +12°C° 0 mm 3 mps 581 mmHg 41%
15:00 +12°C° 0 mm 3 mps 581 mmHg 42%
16:00 +10°C° 0 mm 3 mps 580 mmHg 49%
17:00 +8°C° 0 mm 2 mps 579 mmHg 57%
18:00 +6°C° 0 mm 2 mps 578 mmHg 64%
19:00 +6°C° 0 mm 2 mps 578 mmHg 63%
20:00 +6°C° 0 mm 2 mps 578 mmHg 62%
21:00 +6°C° 0 mm 2 mps 578 mmHg 60%
22:00 +6°C° 0 mm 2 mps 578 mmHg 60%
23:00 +5°C° 0 mm 3 mps 578 mmHg 60%

Tomorrow, 30 October, Friday

Time Temperature Precipitation Wind Pressure Humidity
00:00 +5°C° 0 mm 3 mps 578 mmHg 60%
01:00 +5°C° 0 mm 3 mps 577 mmHg 61%
02:00 +5°C° 0 mm 3 mps 577 mmHg 62%
03:00 +5°C° 0 mm 3 mps 577 mmHg 63%
04:00 +5°C° 0 mm 2 mps 577 mmHg 63%
05:00 +5°C° 0 mm 2 mps 577 mmHg 64%
06:00 +5°C° 0 mm 2 mps 576 mmHg 64%
07:00 +7°C° 0 mm 2 mps 577 mmHg 59%
08:00 +8°C° 0 mm 2 mps 579 mmHg 54%
09:00 +10°C° 0 mm 2 mps 580 mmHg 49%
10:00 +10°C° 0 mm 2 mps 580 mmHg 48%
11:00 +12°C° 0 mm 2 mps 580 mmHg 47%
12:00 +12°C° 0 mm 2 mps 580 mmHg 46%
13:00 +12°C° 0 mm 2 mps 580 mmHg 47%
14:00 +12°C° 0 mm 2 mps 580 mmHg 48%
15:00 +12°C° 0 mm 2 mps 579 mmHg 49%
16:00 +9°C° 0 mm 2 mps 579 mmHg 56%
17:00 +7°C° 0 mm 2 mps 578 mmHg 63%
18:00 +6°C° 0 mm 2 mps 577 mmHg 71%
19:00 +6°C° 0 mm 2 mps 577 mmHg 66%
20:00 +6°C° 0 mm 2 mps 577 mmHg 61%
21:00 +5°C° 0 mm 2 mps 577 mmHg 57%
22:00 +5°C° 0 mm 2 mps 577 mmHg 55%
23:00 +5°C° 0 mm 2 mps 577 mmHg 53%

Day after tomorrow, 31 October, Saturday

Time Temperature Precipitation Wind Pressure Humidity
00:00 +5°C° 0 mm 2 mps 577 mmHg 52%
01:00 +4°C° 0 mm 3 mps 576 mmHg 53%
02:00 +4°C° 0 mm 3 mps 576 mmHg 55%
03:00 +4°C° 0 mm 3 mps 576 mmHg 56%
04:00 +4°C° 0 mm 3 mps 576 mmHg 59%
05:00 +4°C° 0 mm 3 mps 576 mmHg 62%
06:00 +4°C° 0 mm 3 mps 576 mmHg 65%
07:00 +7°C° 0 mm 3 mps 577 mmHg 61%
08:00 +8°C° 0 mm 3 mps 577 mmHg 58%
09:00 +10°C° 0 mm 3 mps 578 mmHg 54%
10:00 +10°C° 0 mm 4 mps 578 mmHg 53%
11:00 +11°C° 0 mm 4 mps 578 mmHg 51%
12:00 +12°C° 0 mm 5 mps 579 mmHg 49%
13:00 +10°C° 0.1 mm 5 mps 578 mmHg 51%
14:00 +11°C° 0.1 mm 4 mps 578 mmHg 52%
15:00 +11°C° 0.1 mm 4 mps 578 mmHg 54%
16:00 +8°C° 0 mm 4 mps 577 mmHg 58%
17:00 +8°C° 0 mm 3 mps 577 mmHg 63%
18:00 +5°C° 0 mm 3 mps 576 mmHg 67%
19:00 +5°C° 0.1 mm 3 mps 576 mmHg 69%
20:00 +5°C° 0.1 mm 3 mps 577 mmHg 70%
21:00 +5°C° 0.1 mm 3 mps 577 mmHg 72%
22:00 +5°C° 0 mm 3 mps 577 mmHg 71%
23:00 +5°C° 0 mm 3 mps 577 mmHg 70%

1 November, Sunday

Time Temperature Precipitation Wind Pressure Humidity
00:00 +5°C° 0 mm 3 mps 576 mmHg 69%
01:00 +5°C° 0 mm 3 mps 576 mmHg 69%
02:00 +5°C° 0 mm 2 mps 576 mmHg 70%
03:00 +5°C° 0 mm 2 mps 576 mmHg 70%
04:00 +5°C° 0 mm 2 mps 576 mmHg 70%
05:00 +5°C° 0 mm 2 mps 576 mmHg 70%
06:00 +5°C° 0 mm 2 mps 576 mmHg 70%
07:00 +5°C° 0 mm 3 mps 577 mmHg 65%
08:00 +8°C° 0 mm 3 mps 578 mmHg 59%
09:00 +9°C° 0 mm 3 mps 579 mmHg 54%
10:00 +10°C° 0 mm 3 mps 579 mmHg 51%
11:00 +10°C° 0 mm 4 mps 579 mmHg 48%
12:00 +11°C° 0 mm 4 mps 579 mmHg 45%
13:00 +11°C° 0 mm 4 mps 579 mmHg 44%
14:00 +11°C° 0 mm 4 mps 579 mmHg 42%
15:00 +11°C° 0 mm 4 mps 579 mmHg 41%
16:00 +9°C° 0 mm 3 mps 578 mmHg 46%
17:00 +8°C° 0 mm 3 mps 578 mmHg 50%
18:00 +6°C° 0 mm 2 mps 577 mmHg 54%
19:00 +6°C° 0 mm 2 mps 577 mmHg 54%
20:00 +6°C° 0 mm 2 mps 577 mmHg 54%
21:00 +5°C° 0 mm 3 mps 578 mmHg 53%
22:00 +5°C° 0 mm 3 mps 578 mmHg 53%
23:00 +4°C° 0 mm 3 mps 578 mmHg 52%

2 November, Monday

Time Temperature Precipitation Wind Pressure Humidity
00:00 +4°C° 0 mm 3 mps 578 mmHg 52%
01:00 +4°C° 0 mm 3 mps 578 mmHg 54%
02:00 +4°C° 0 mm 3 mps 578 mmHg 56%
03:00 +4°C° 0 mm 3 mps 578 mmHg 58%
04:00 +4°C° 0 mm 3 mps 578 mmHg 57%
05:00 +5°C° 0 mm 2 mps 578 mmHg 57%
06:00 +5°C° 0 mm 2 mps 578 mmHg 57%
07:00 +6°C° 0 mm 2 mps 579 mmHg 52%
08:00 +8°C° 0 mm 2 mps 580 mmHg 48%
09:00 +9°C° 0 mm 2 mps 581 mmHg 44%
10:00 +9°C° 0 mm 3 mps 581 mmHg 47%
11:00 +9°C° 0 mm 3 mps 581 mmHg 50%
12:00 +9°C° 0 mm 3 mps 581 mmHg 54%
13:00 +9°C° 0 mm 3 mps 581 mmHg 52%
14:00 +10°C° 0 mm 3 mps 581 mmHg 49%
15:00 +10°C° 0 mm 3 mps 581 mmHg 47%
16:00 +9°C° 0 mm 2 mps 581 mmHg 53%
17:00 +7°C° 0 mm 2 mps 580 mmHg 58%
18:00 +7°C° 0 mm 1 mps 580 mmHg 64%
19:00 +6°C° 0 mm 2 mps 580 mmHg 62%
20:00 +6°C° 0 mm 2 mps 580 mmHg 61%
21:00 +6°C° 0 mm 2 mps 580 mmHg 60%
22:00 +5°C° 0.1 mm 2 mps 580 mmHg 63%
23:00 +4°C° 0.1 mm 3 mps 580 mmHg 65%

3 November, Tuesday

Time Temperature Precipitation Wind Pressure Humidity
00:00 +4°C° 0.1 mm 3 mps 580 mmHg 68%
01:00 +4°C° 0 mm 3 mps 580 mmHg 68%
02:00 +4°C° 0 mm 3 mps 580 mmHg 69%
03:00 +5°C° 0 mm 2 mps 580 mmHg 69%
04:00 +5°C° 0 mm 2 mps 580 mmHg 66%
05:00 +5°C° 0 mm 2 mps 580 mmHg 63%
06:00 +5°C° 0 mm 2 mps 580 mmHg 60%
07:00 +6°C° 0 mm 2 mps 581 mmHg 56%
08:00 +7°C° 0 mm 2 mps 582 mmHg 52%
09:00 +9°C° 0 mm 2 mps 582 mmHg 48%
10:00 +9°C° 0 mm 2 mps 582 mmHg 47%
11:00 +10°C° 0 mm 2 mps 583 mmHg 46%
12:00 +11°C° 0 mm 3 mps 583 mmHg 45%
13:00 +11°C° 0 mm 3 mps 582 mmHg 46%
14:00 +12°C° 0 mm 2 mps 582 mmHg 46%
15:00 +10°C° 0 mm 2 mps 582 mmHg 47%
16:00 +9°C° 0 mm 2 mps 582 mmHg 52%
17:00 +8°C° 0 mm 2 mps 581 mmHg 57%
18:00 +7°C° 0 mm 2 mps 581 mmHg 62%
19:00 +5°C° 0 mm 3 mps 580 mmHg 63%
20:00 +5°C° 0 mm 3 mps 580 mmHg 65%
21:00 +5°C° 0 mm 3 mps 580 mmHg 66%
22:00 +4°C° 0 mm 3 mps 580 mmHg 68%
23:00 +4°C° 0 mm 3 mps 580 mmHg 69%
Show more